User: anonymous   Login
Location: Castelbiague
(43.0361°N, 0.9246°E)
Time: 00:16:14
(UTC+00:00)
Language:

USA 215 - Orbit

View from above orbital plane
View from above orbital plane
View from above satellite
View from above satellite

Ground track
Ground track

The orbit data is extracted from the following two-line orbital elements,

1 37162U 10046A   21213.04273047 0.00000000  00000-0  00000-0 0    09
2 37162 123.0041 168.5889 0004437 160.6047 199.3952 13.41430287    00
Epoch (UTC): 01 August 2021 01:01:31
Eccentricity: 0.0004437
inclination: 123.0041°
perigee height: 1100 km
apogee height: 1107 km
right ascension of ascending node: 168.5889°
argument of perigee: 160.6047°
revolutions per day: 13.41430287
mean anomaly at epoch: 199.3952°
orbit number at epoch: 0

The dashed part of the orbit path shows where the satellite is in the earth's shadow,  

DLR